Tracking 28792 objects as of 25-Apr-2024
HD Live streaming from Space Station
objects crossing your sky now

STARLINK-31572

Track STARLINK-31572 now!
10-day predictions
STARLINK-31572 is classified as:


NORAD ID: 59333
Int'l Code: 2024-057P
Perigee: 421.3 km
Apogee: 427.2 km
Inclination: 43.0 °
Period: 92.9 minutes
Semi major axis: 6795 km
RCS: Unknown
Launch date: March 25, 2024
Source: United States (US)
Launch site: AIR FORCE EASTERN TEST RANGE (AFETR)
Your satellite tracking list
Your tracking list is empty




NASA's NSSDC Master Catalog

Two Line Element Set (TLE):
1 59333U 24057P   24115.43832605  .00126305  00000-0  21787-2 0  9999
2 59333  43.0002 138.7933 0004350 245.8261 114.2144 15.49857744  5824
Source of the keplerian elements: AFSPC